FLOCK 4S-45 (47688 NORAD) Tracking and Keplerian Element Data

This shows tracking and keplerian element data for the satellite.

Feedback or suggestion? Click here.




ElementValue
Catalog47688
NameFLOCK 4S-45
Epoch Orbit1353
Epoch Day105.76180536
Epoch Year2021
RAAN167.9882
Inclination97.4993
Eccentricity0.0010345
Argument of Perigee312.2267
Mean Anonmoly47.8085
Mean Motion15.11514916
Decay Rate2.051E-05
L11 47688U 21006EP 21105.76180536 .00002051 00000-0 12477-3 0 9999
L22 47688 97.4993 167.9882 0010345 312.2267 47.8085 15.11514916 13531

Live tracking and technical data element details for FLOCK 4S-45 (NORAD 47688). FLOCK 4S-45 can be tracked NOW for your location showing map with azimuth and elevation plus other details from your city location.

Track the satellite on the map from your city or location and see movement details for azimuth, elevation, latitude, longitude, range, height, and movement on the map or in text.







IsCatalogInMostPopularTable: catalog: 47688, numindb: 15
Update: records affected: 1



GetName: 47688 FLOCK 4S-45

Hit Count: updated at: Fri, 16 Apr 2021 11:04:07 GMT